Weather History for Mandan, ND

Change the Weather History Date:

Tuesday, September 17, 2013

  Actual Average (KBIS) Record (KBIS)
Temperature  
Mean Temperature 65 °F 58 °F  
Max Temperature 77 °F 71 °F 96 °F (1989)
Min Temperature 53 °F 44 °F 27 °F (1973)
Degree Days  
Heating Degree Days 0 8  
Month to date heating degree days 92  
Since 1 July heating degree days 147  
Cooling Degree Days 0 1  
Month to date cooling degree days 32  
Year to date cooling degree days 513  
Growing Degree Days 15 (Base 50)    
Moisture  
Dew Point 57 °F    
Average Humidity 80    
Maximum Humidity 100    
Minimum Humidity 54    
Precipitation  
Precipitation 0.00 in 0.05 in 0.85 in (1942)
Month to date precipitation 0.97  
Year to date precipitation 14.78  
Snow  
Snow 0.00 in 0.00 in T in (2010)
Month to date snowfall 0.0  
Since 1 July snowfall 0.0  
Since 1 September snowfall 0.0  
Snow Depth -    
Sea Level Pressure  
Sea Level Pressure 29.81 in    
Wind  
Wind Speed 14 mph (SSE)    
Max Wind Speed 20 mph    
Max Gust Speed 30 mph    
Visibility 10 miles    
Events      
T = Trace of Precipitation, MM = Missing Value Source: NWS Daily Summary

Daily Weather History Graph

Daily Weather History Graph

Search for Another Location

Airport:

Trip Planner

Search our weather history database for the weather conditions in past years. The results will help you decide how hot, cold, wet, or windy it might be!

Date:

Astronomy

Sep. 17, 2013 Rise Set
Actual Time 7:24 AM CDT 7:50 PM CDT
Civil Twilight 6:53 AM CDT 8:21 PM CDT
Nautical Twilight 6:17 AM CDT 8:56 PM CDT
Astronomical Twilight 5:40 AM CDT 9:34 PM CDT
Moon 6:41 PM CDT (9/17) 5:15 AM CDT (9/17)
Length of Visible Light 13h 27m
Length of Day
12h 26m
Waxing Gibbous, 96% of the Moon is Illuminated
Sep 17
Waxing Gibbous
Sep 19
Full
Sep 26
Last Quarter
Oct 4
New
Oct 11
First Quarter

Hourly Weather History & Observations

Time (CDT) Temp. Dew Point Humidity Pressure Visibility Wind Dir Wind Speed Gust Speed Precip Events Conditions
12:15 AM 57.2 °F 53.6 °F 88% 29.96 in 10.0 mi SSE 19.6 mph 29.9 mph N/A   Clear
12:35 AM 57.2 °F 53.6 °F 88% 29.96 in 10.0 mi SSE 17.3 mph 23.0 mph N/A   Clear
12:55 AM 57.2 °F 53.6 °F 88% 29.96 in 10.0 mi SSE 17.3 mph 25.3 mph N/A   Clear
1:15 AM 57.2 °F 53.6 °F 88% 29.95 in 10.0 mi SSE 17.3 mph 23.0 mph N/A   Clear
1:35 AM 55.4 °F 53.6 °F 94% 29.94 in 10.0 mi SSE 16.1 mph 20.7 mph N/A   Scattered Clouds
1:55 AM 55.4 °F 55.4 °F 100% 29.95 in 10.0 mi SSE 11.5 mph - N/A   Scattered Clouds
2:15 AM 55.4 °F 55.4 °F 100% 29.95 in 10.0 mi SSE 11.5 mph 17.3 mph N/A   Partly Cloudy
2:35 AM 55.4 °F 55.4 °F 100% 29.94 in 10.0 mi SSE 11.5 mph - N/A   Mostly Cloudy
2:55 AM 55.4 °F 55.4 °F 100% 29.93 in 10.0 mi South 11.5 mph 19.6 mph N/A   Mostly Cloudy
3:15 AM 55.4 °F 55.4 °F 100% 29.92 in 10.0 mi South 13.8 mph 20.7 mph N/A   Partly Cloudy
3:35 AM 55.4 °F 55.4 °F 100% 29.91 in 10.0 mi South 16.1 mph 21.9 mph N/A   Clear
3:55 AM 55.4 °F 55.4 °F 100% 29.90 in 10.0 mi South 12.7 mph 20.7 mph N/A   Clear
4:15 AM 55.4 °F 55.4 °F 100% 29.90 in 10.0 mi SSE 11.5 mph - N/A   Clear
4:35 AM 53.6 °F 53.6 °F 100% 29.89 in 10.0 mi SSE 10.4 mph - N/A   Clear
4:55 AM 53.6 °F 53.6 °F 100% 29.89 in 10.0 mi SSE 12.7 mph - N/A   Clear
5:15 AM 53.6 °F 53.6 °F 100% 29.88 in 10.0 mi SSE 11.5 mph - N/A   Clear
5:35 AM 53.6 °F 53.6 °F 100% 29.86 in 10.0 mi SSE 12.7 mph - N/A   Clear
5:55 AM 53.6 °F 53.6 °F 100% 29.86 in 10.0 mi SSE 12.7 mph - N/A   Clear
6:15 AM 53.6 °F 53.6 °F 100% 29.86 in 10.0 mi South 12.7 mph - N/A   Clear
6:35 AM 53.6 °F 53.6 °F 100% 29.86 in 10.0 mi SSE 11.5 mph - N/A   Clear
6:55 AM 53.6 °F 53.6 °F 100% 29.86 in 10.0 mi SSE 11.5 mph - N/A   Clear
7:15 AM 53.6 °F 53.6 °F 100% 29.86 in 9.0 mi SSE 10.4 mph - N/A   Clear
7:35 AM 53.6 °F 53.6 °F 100% 29.86 in 10.0 mi SSE 10.4 mph - N/A   Clear
7:55 AM 55.4 °F 55.4 °F 100% 29.85 in 10.0 mi SSE 11.5 mph - N/A   Clear
8:15 AM 55.4 °F 55.4 °F 100% 29.85 in 10.0 mi South 11.5 mph 16.1 mph N/A   Clear
8:35 AM 57.2 °F 57.2 °F 100% 29.85 in 10.0 mi South 13.8 mph 18.4 mph N/A   Clear
8:55 AM 57.2 °F 57.2 °F 100% 29.85 in 10.0 mi South 13.8 mph 20.7 mph N/A   Clear
9:15 AM 59.0 °F 57.2 °F 94% 29.85 in 1.5 mi South 15.0 mph 19.6 mph N/A   Scattered Clouds
9:35 AM 59.0 °F 57.2 °F 94% 29.85 in 10.0 mi South 15.0 mph 18.4 mph N/A   Partly Cloudy
9:55 AM - - N/A% 29.84 in 10.0 mi South 13.8 mph 19.6 mph N/A   Scattered Clouds
10:15 AM 62.6 °F 55.4 °F 77% 29.84 in 10.0 mi South 15.0 mph 21.9 mph N/A   Partly Cloudy
10:35 AM 64.4 °F 55.4 °F 73% 29.83 in 10.0 mi South 15.0 mph 19.6 mph N/A   Unknown
10:55 AM 66.2 °F 55.4 °F 68% 29.82 in 10.0 mi South 11.5 mph 21.9 mph N/A   Unknown
11:15 AM 66.2 °F 55.4 °F 68% 29.82 in 10.0 mi South 12.7 mph 23.0 mph N/A   Clear
11:35 AM 68.0 °F 57.2 °F 68% 29.81 in 10.0 mi SSW 11.5 mph 20.7 mph N/A   Clear
11:55 AM 68.0 °F 57.2 °F 68% 29.80 in 10.0 mi South 13.8 mph 20.7 mph N/A   Clear
12:15 PM 69.8 °F 57.2 °F 64% 29.80 in 10.0 mi SSE 13.8 mph 21.9 mph N/A   Clear
12:35 PM 71.6 °F 57.2 °F 60% 29.79 in 10.0 mi South 12.7 mph 19.6 mph N/A   Clear
12:55 PM 71.6 °F 57.2 °F 60% 29.79 in 10.0 mi South 12.7 mph 19.6 mph N/A   Clear
1:15 PM 73.4 °F 59.0 °F 61% 29.78 in 10.0 mi SSW 11.5 mph 18.4 mph N/A   Clear
1:35 PM 73.4 °F 59.0 °F 61% 29.77 in 10.0 mi South 11.5 mph 20.7 mph N/A   Clear
1:55 PM 75.2 °F 59.0 °F 57% 29.77 in 10.0 mi South 11.5 mph 20.7 mph N/A   Clear
2:15 PM 75.2 °F 59.0 °F 57% 29.77 in 10.0 mi South 13.8 mph 20.7 mph N/A   Clear
2:35 PM 75.2 °F 59.0 °F 57% 29.76 in 10.0 mi South 12.7 mph 19.6 mph N/A   Clear
2:55 PM 75.2 °F 59.0 °F 57% 29.76 in 10.0 mi SSE 15.0 mph 19.6 mph N/A   Clear
3:15 PM 77.0 °F 59.0 °F 54% 29.75 in 10.0 mi South 11.5 mph 17.3 mph N/A   Clear
3:35 PM 77.0 °F 60.8 °F 57% 29.75 in 10.0 mi South 12.7 mph 18.4 mph N/A   Clear
3:55 PM 77.0 °F 60.8 °F 57% 29.74 in 10.0 mi South 11.5 mph 18.4 mph N/A   Clear
4:15 PM 77.0 °F 60.8 °F 57% 29.73 in 10.0 mi South 11.5 mph 19.6 mph N/A   Clear
4:35 PM 77.0 °F 60.8 °F 57% 29.73 in 10.0 mi SSE 13.8 mph 18.4 mph N/A   Clear
4:55 PM 77.0 °F 60.8 °F 57% 29.72 in 10.0 mi SSE 15.0 mph 19.6 mph N/A   Clear
5:15 PM 77.0 °F 60.8 °F 57% 29.72 in 10.0 mi South 13.8 mph 20.7 mph N/A   Clear
5:35 PM 77.0 °F 60.8 °F 57% 29.72 in 10.0 mi SSE 13.8 mph - N/A   Clear
5:55 PM 77.0 °F 60.8 °F 57% 29.72 in 10.0 mi SSE 13.8 mph - N/A   Clear
6:15 PM 75.2 °F 60.8 °F 61% 29.71 in 10.0 mi SSE 12.7 mph 16.1 mph N/A   Clear
6:35 PM 75.2 °F 60.8 °F 61% 29.71 in 10.0 mi SSE 12.7 mph 17.3 mph N/A   Clear
6:55 PM 73.4 °F 60.8 °F 65% 29.71 in 10.0 mi SSE 10.4 mph - N/A   Clear
7:15 PM 71.6 °F 60.8 °F 69% 29.71 in 10.0 mi SSE 9.2 mph - N/A   Clear
7:35 PM 69.8 °F 60.8 °F 73% 29.71 in 10.0 mi SSE 9.2 mph - N/A   Clear
7:55 PM 68.0 °F 59.0 °F 73% 29.71 in 10.0 mi SSE 9.2 mph - N/A   Clear
8:15 PM 68.0 °F 59.0 °F 73% 29.72 in 10.0 mi SSE 8.1 mph - N/A   Clear
8:35 PM 66.2 °F 59.0 °F 78% 29.72 in 10.0 mi SE 8.1 mph - N/A   Clear
8:55 PM 66.2 °F 59.0 °F 78% 29.72 in 10.0 mi SE 8.1 mph - N/A   Clear
9:15 PM 64.4 °F 59.0 °F 83% 29.73 in 10.0 mi SE 11.5 mph - N/A   Clear
9:35 PM 64.4 °F 59.0 °F 83% 29.73 in 10.0 mi SSE 9.2 mph - N/A   Clear
9:55 PM 62.6 °F 59.0 °F 88% 29.72 in 10.0 mi SSE 11.5 mph - N/A   Clear
10:15 PM 62.6 °F 59.0 °F 88% 29.71 in 10.0 mi SSE 13.8 mph - N/A   Clear
10:35 PM 62.6 °F 57.2 °F 82% 29.71 in 10.0 mi SSE 11.5 mph - N/A   Clear
11:15 PM 62.6 °F 57.2 °F 82% 29.71 in 10.0 mi SSE 8.1 mph - N/A   Clear
11:35 PM 62.6 °F 57.2 °F 82% 29.71 in 10.0 mi South 11.5 mph - N/A   Clear
11:55 PM 60.8 °F 57.2 °F 88% 29.72 in 10.0 mi SSE 10.4 mph - N/A   Clear